Location: Krakow
(50.0830°N, 19.9170°E)
Time: 16:44:30
(UTC+02:00)

Courier 1B - Pass Details

Date: 18 March 2026
Orbit: 962 x 1209 km, 28.3° (Epoch: 19 April)

Event Time Altitude Azimuth Distance (km) Brightness Sun altitude
Rises 09:59:25 0° 230° (SW) 3,947 10.7 34.0°
Reaches altitude 10° 10:04:43 10° 199° (SSW) 2,919 10.6 34.4°
Maximum altitude 10:06:43 11° 183° (S) 2,797 10.8 34.6°
Drops below altitude 10° 10:08:41 10° 166° (SSE) 2,866 11.2 34.8°
Sets 10:13:44 0° 134° (SE) 3,753 11.5 35.2°
